Regional Weather Roundup
Issued by NWS Kansas City/Pleasant Hill, MO

Home | Current Version | Previous Version | Text Only | Print | Product List | Glossary On
Versions: 1 2 3 4 5 6 7 8 9 10 11 12 13 14 15 16 17 18 19 20 21 22 23 24 25 26 27 28 29 30 31 32 33 34 35 36 37 38 39 40 41 42 43 44 45 46 47 48 49 50
000
ASUS43 KEAX 310111
RWREAX

WEATHER ROUNDUP FOR EASTERN KANSAS AND NORTHWEST MISSOURI
NATIONAL WEATHER SERVICE KANSAS CITY/PLEASANT HILL MO
700 PM CST FRI JAN 30 2015

KSZ040-057-103>105-MOZ028-029-037-043-310200-
...KANSAS CITY METROPOLITAN AREA...

CITY           SKY/WX    TMP DP  RH WIND       PRES   REMARKS
K.C. INTL      CLOUDY    31  20  63 S6        30.37F WCI  25
K.C. DOWNTOWN  CLOUDY    37  19  48 CALM      30.39S
LEES SUMMIT    CLOUDY    37  18  46 S9        30.38F WCI  30
OLATHE - IXD   CLOUDY    33  22  63 S5        30.39F WCI  29
OLATHE - OJC   CLOUDY    35  23  61 S3        30.38F
LAWRENCE       CLOUDY    32  22  66 SE5       30.39F WCI  27

$$

MOZ001>008-011>017-020>025-030>033-038>040-044>046-053-054-310200-
...NORTHERN AND CENTRAL MISSOURI...

CITY           SKY/WX    TMP DP  RH WIND       PRES   REMARKS
ST. JOSEPH     CLOUDY    31  19  61 S5        30.38F WCI  26
MOSBY            N/A     32  19  59 CALM      30.39S
WARRENSBURG    CLOUDY    34  19  55 CALM      30.40F
WHITEMAN AFB   CLOUDY    33  19  58 S3        30.39F
CLINTON        CLOUDY    34  23  64 CALM      30.41F
SEDALIA        CLOUDY    34  20  56 CALM      30.41F
WARSAW         NOT AVBL
MARSHALL       MOCLDY    36  21  55 CALM      30.43F
CHILLICOTHE      N/A     29  18  63 CALM      30.42F
MOBERLY        PTCLDY    32  18  55 CALM      30.43F
KIRKSVILLE     CLEAR     26  18  71 S6        30.41F WCI  19

$$

MOZ041-047>049-056>058-063>065-088>090-097-310200-
...EASTERN AND SOUTHERN MISSOURI...

CITY           SKY/WX    TMP DP  RH WIND       PRES   REMARKS
ST. LOUIS INTL MOCLDY    34  19  54 CALM      30.46S
SPIRIT OF STL  CLEAR     28  18  66 CALM      30.45S
COLUMBIA       MOCLDY    33  17  51 CALM      30.42S
JEFFERSON CITY CLOUDY    31  18  58 CALM      30.44S
MEXICO         MOCLDY    30  25  80 CALM      30.43F
HANNIBAL       PTCLDY    28  18  64 CALM      30.43F
ROLLA          CLOUDY    28  20  71 CALM      30.40S
LEBANON        CLOUDY    36  18  48 SE3       30.39F
OSAGE BEACH    CLOUDY    36  16  44 CALM      30.41F
SPRINGFIELD    CLOUDY    37  19  48 CALM      30.40R
BRANSON        MOCLDY    36  18  48 SE5       30.41S WCI  32
NEVADA         CLOUDY    36  27  69 CALM      30.41F
JOPLIN         CLOUDY    42  23  46 CALM      30.41S
WEST PLAINS    MOCLDY    35  16  45 CALM      30.41S

$$

IAZ060-094-KSZ022-034>040-054-083-096-NEZ052-066-093-310200-
...KANSAS...SOUTHEAST NEBRASKA AND IOWA...

CITY           SKY/WX    TMP DP  RH WIND       PRES   REMARKS
TOPEKA         CLOUDY    36  22  56 SE5       30.38F WCI  32
MANHATTAN      CLOUDY    39  26  59 CALM      30.35F
EMPORIA        CLOUDY    36  24  62 S6        30.37S WCI  31
CHANUTE        CLOUDY    38  25  59 SE5       30.40S WCI  34
WICHITA        CLOUDY    41  26  55 SE7       30.36S
OMAHA          MOCLDY    33  24  69 S10       30.31F WCI  25
LINCOLN        MOCLDY    34  25  69 S10       30.30F WCI  26
FALLS CITY     CLOUDY    32  21  64 SE5       30.35S WCI  27
LAMONI         PTCLDY    29  14  53 S10       30.36F WCI  20
DES MOINES     FAIR      30  15  53 S7        30.35F WCI  23

$$




USA.gov is the U.S. government's official web portal to all federal, state and local government web resources and services.